Location: Burgberg
(50.1428°N, 11.0671°E)
Time: 11:26:19
(UTC+00:00)

Cosmos 332 Rocket - Pass Details

Date: 26 January 2020
Orbit: 683 x 703 km, 74.0° (Epoch: 27 February)

Event Time Altitude Azimuth Distance (km) Brightness Sun altitude
Rises 06:14:07 0° 335° (NNW) 3,058 6.7 -7.3°
Reaches altitude 10° 06:16:26 10° 336° (NNW) 2,138 5.9 -6.9°
Maximum altitude 06:21:15 89° 251° (WSW) 691 3.8 -6.2°
Drops below altitude 10° 06:26:03 10° 158° (SSE) 2,128 7.0 -5.5°
Sets 06:28:21 0° 159° (SSE) 3,042 7.9 -5.2°
